This demonstration page uses our WeatherBlox Daily Observations layout. Learn more.

Left ArrowRight Arrow

39.08367, -84.50855

Hourly Observations for April 18, 2018

Temp ( °F °C ) Dew Point ( °F °C ) Humidity (%) Winds ( mph kmh ) Pressure ( in mb ) Visibility ( mi km ) Precip ( " mm )
12:53 am 00:53 Mostly Cloudy 37 2.8 30 -1.1 76 76 NE 6 9 29.94 1014 10 16 N/A
1:53 am 01:53 Cloudy 38 3.3 29 -1.7 70 70 N N/A 29.95 1014 10 16 N/A
2:53 am 02:53 Cloudy 39 3.9 27 -2.8 62 62 ESE 3 6 29.95 1014 10 16 N/A
3:53 am 03:53 Cloudy 39 3.9 28 -2.2 65 65 ENE 3 6 29.93 1014 10 16 N/A
4:53 am 04:53 Mostly Cloudy 38 3.3 27 -2.8 65 65 E 3 6 29.92 1013 10 16 N/A
5:53 am 05:53 Cloudy 38 3.3 29 -1.7 70 70 ENE 3 6 29.92 1013 10 16 N/A
6:53 am 06:53 Mostly Cloudy 37 2.8 29 -1.7 73 73 ENE 3 6 29.91 1013 10 16 N/A
7:53 am 07:53 Mostly Cloudy 39 3.9 31 -0.6 73 73 NE 5 7 29.91 1013 10 16 N/A
8:53 am 08:53 Partly Cloudy 42 5.6 29 -1.7 60 60 SSE 6 9 29.90 1013 10 16 N/A
9:53 am 09:53 Mostly Cloudy 45 7.2 30 -1.1 56 56 VRB 3 6 29.89 1012 10 16 N/A
10:53 am 10:53 Sunny 49 9.4 33 0.6 55 55 ENE 6 9 29.83 1010 10 16 N/A
11:53 am 11:53 Sunny 53 11.7 36 2.2 52 52 VRB 5 7 29.79 1009 10 16 N/A
12:53 pm 12:53 Sunny 57 13.9 39 3.9 51 51 SSE 6 9 29.77 1008 10 16 N/A
1:53 pm 13:53 Sunny 61 16.1 44 6.7 54 54 SW 8 13 29.73 1007 10 16 N/A
2:53 pm 14:53 Sunny 65 18.3 46 7.8 51 51 SSW 6 9 29.70 1006 10 16 N/A
3:53 pm 15:53 Partly Cloudy 70 21.1 53 11.7 55 55 SSW 10 17 29.66 1004 10 16 N/A
4:53 pm 16:53 Cloudy 70 21.1 55 12.8 59 59 SSW 6 9 29.64 1004 10 16 N/A
5:53 pm 17:53 Mostly Cloudy 71 21.7 55 12.8 57 57 NE 6 9 29.62 1003 10 16 N/A
6:53 pm 18:53 Cloudy 69 20.6 53 11.7 57 57 NE 6 9 29.59 1002 10 16 N/A
7:53 pm 19:53 Cloudy with Light Rain 66 18.9 54 12.2 65 65 N 10 17 29.59 1002 7 11 0.05 1.27
7:59 pm 19:59 Cloudy with Heavy Rain 62 16.7 56 13.3 80 80 W 12 19 29.62 1003 2 3 0.13 3.30
8:01 pm 20:01 Cloudy with Strong Thunderstorms 62 16.7 57 13.9 84 84 WNW 15 24 29.65 1004 3 5 0.20 5.08
8:13 pm 20:13 Cloudy with Thunderstorms 61 16.1 56 13.3 84 84 NW 16 26 29.65 1004 7 11 0.32 8.13
8:21 pm 20:21 Cloudy with Light Rain 62 16.7 54 12.2 75 75 N 9 15 29.65 1004 7 11 0.32 8.13
8:53 pm 20:53 Cloudy with Light Rain 61 16.1 53 11.7 75 75 VRB 6 9 29.68 1005 5 8 0.36 9.14
9:53 pm 21:53 Cloudy 60 15.6 49 9.4 67 67 WNW 9 15 29.75 1008 10 16 0.01 0.25
10:53 pm 22:53 Mostly Cloudy 54 12.2 39 3.9 57 57 WNW 14 22 29.81 1009 10 16 N/A
11:53 pm 23:53 Mostly Cloudy 49 9.4 38 3.3 66 66 W 17 28 29.85 1011 10 16 N/A

Powered by AerisWeather